Regional Weather Roundup
Issued by NWS

Home | Current Version | Previous Version | Text Only | Print | Product List | Glossary Off
Versions: 1 2 3 4 5 6 7 8 9 10 11 12 13 14 15 16 17 18 19 20 21 22 23 24 25 26 27 28 29 30 31 32 33 34 35 36 37 38 39 40 41 42 43 44 45 46 47 48 49 50

617
ASUS43 KIND 180009
RWRIN

WEATHER ROUNDUP FOR INDIANA
NATIONAL WEATHER SERVICE INDIANAPOLIS IN
800 PM EDT THU AUG 17 2017

NOTE: "FAIR" INDICATES FEW OR NO CLOUDS BELOW 12,000 FEET WITH NO
SIGNIFICANT WEATHER AND/OR OBSTRUCTIONS TO VISIBILITY.

* - STATION DOES NOT REPORT WEATHER SUCH AS PRECIPITATION OR FOG.

+ - STATION NOT QUALITY CONTROLLED BY THE NATIONAL WEATHER SERVICE.
    USE DATA WITH CAUTION...ESPECIALLY DEWPOINT AND RELATIVE
    HUMIDITY OBSERVATIONS.

INZ001>003-010>013-019-020-180100-
NORTHWEST INDIANA

CITY           SKY/WX    TMP DP  RH WIND       PRES   REMARKS
GARY /AIRPORT/ MOCLDY    82  59  44 MISG      29.76R
KNOX *+        MOCLDY    77  68  73 SW9       29.78R
LA PORTE +     CLOUDY    79  66  64 W14G20    29.77S
6HR MIN TEMP:  78; 6HR MAX TEMP:  83;

MICHIGAN CITY+ CLOUDY    79  63  57 SW10G17   29.76S
MONTICELLO +   PTCLDY    78  67  69 W3        29.80S
6HR MIN TEMP:  79; 6HR MAX TEMP:  84;

RENSSELAER +   CLOUDY    77  63  61 SW9       29.80S
VALPARAISO     CLOUDY    80  66  62 W14       29.78R
6HR MIN TEMP:  80; 6HR MAX TEMP:  83;


$$

LMZ046-743>745-180100-
SOUTHERN LAKE MICHIGAN

STATION/POSITION TIME  TEMP    WIND        PRES    WAVE
                       AIR SEA DIR/SP/G            HT
                 (UTC) (F)     (DEG/KT/KT) (MB)    (FT)
BURNS HARBOR     2340   80     230/ 15/ 22 1007.8S
MICHIGAN CITY    2340   78     230/ 21/ 23   N/A
5NW MICH CITY    2350   77 75  250/ 14/ 16   N/A     4

$$

INZ004-005-014>016-021>024-180100-
NORTH CENTRAL INDIANA

CITY           SKY/WX    TMP DP  RH WIND       PRES   REMARKS
ELKHART        PTCLDY    79  64  61 SW12G17   29.76S
GOSHEN         CLEAR     78  64  61 SW10      29.77S
6HR MIN TEMP:  78; 6HR MAX TEMP:  83;

LOGANSPORT +   PTCLDY    75  66  73 W6        29.82S
PERU/GRISSOM   PTCLDY    79  69  72 W8        29.81R
6HR MIN TEMP:  79; 6HR MAX TEMP:  83;

ROCHESTER +    CLEAR     79  68  69 SW8       29.81R
SOUTH BEND     PTCLDY    78  68  71 SW16      29.77R
6HR MIN TEMP:  78; 6HR MAX TEMP:  84;

WARSAW +       CLEAR     77  66  69 SW9       29.79S

$$

INZ006>009-017-018-025>027-180100-
NORTHEAST INDIANA

CITY           SKY/WX    TMP DP  RH WIND       PRES   REMARKS
AUBURN +       CLEAR     77  68  73 SW8       29.79S
FORT WAYNE     PTCLDY    79  68  69 W10       29.79S
6HR MIN TEMP:  79; 6HR MAX TEMP:  84;

HUNTINGTON +   PTCLDY    78  69  72 W9        29.80S
6HR MIN TEMP:  78; 6HR MAX TEMP:  84;

KENDALLVILLE + PTCLDY    77  67  71 W12       29.79R

$$

INZ028-029-035-036-043>045-051>053-180100-
WEST CENTRAL INDIANA

CITY           SKY/WX    TMP DP  RH WIND       PRES   REMARKS
GREENCASTLE +  CLEAR     79  68  69 SW3       29.85R
LAFAYETTE      PTCLDY    78  69  73 W6        29.80R
6HR MIN TEMP:  78; 6HR MAX TEMP:  84;

TERRE HAUTE    CLEAR     81  69  67 SW9       29.83R
6HR MIN TEMP:  81; 6HR MAX TEMP:  85;


$$

INZ030>032-037>040-046>048-054>057-064-065-180100-
CENTRAL INDIANA

CITY           SKY/WX    TMP DP  RH WIND       PRES   REMARKS
CP ATTERBURY + PTCLDY    82  68  61 CALM      29.85S
COLUMBUS       CLEAR     82  68  61 SW7       29.85S
FRANKFORT +    PTCLDY    82  70  68 W6        29.84S
6HR MIN TEMP:  82; 6HR MAX TEMP:  87;

GREENWOOD *+   CLEAR     82  66  58 SW9       29.85S
INDIANAPOLIS   MOCLDY    82  68  62 SW13      29.83R
6HR MIN TEMP:  82; 6HR MAX TEMP:  88;

-EAGLE CREEK   PTCLDY    81  68  64 SW8       29.83R
6HR MIN TEMP:  81; 6HR MAX TEMP:  86;

KOKOMO +       CLEAR     79  68  69 W10       29.83R
6HR MIN TEMP:  79; 6HR MAX TEMP:  84;

MARION +       CLEAR     79  70  73 W7          N/A  HAZE
MT COMFORT *+  CLEAR     81  68  65 SW9G16    29.84S
SHELBYVILLE    PTCLDY    82  68  62 SW6       29.83F
6HR MIN TEMP:  82; 6HR MAX TEMP:  86;

ZIONSVILLE +   PTCLDY    78  70  76 SW8       29.84S
6HR MIN TEMP:  78; 6HR MAX TEMP:  83;


$$

INZ033-034-041-042-049-050-058-059-180100-
EAST CENTRAL INDIANA

CITY           SKY/WX    TMP DP  RH WIND       PRES   REMARKS
MUNCIE         CLOUDY    83  69  62 SW7       29.82S
6HR MIN TEMP:  82; 6HR MAX TEMP:  86;

RICHMOND +     CLEAR     77  68  73 SW6       29.86S

$$

INZ060-061-067>069-081>083-085>088-180100-
SOUTHWEST INDIANA

CITY           SKY/WX    TMP DP  RH WIND       PRES   REMARKS
EVANSVILLE     CLOUDY    84  70  62 SW15      29.86R
6HR MIN TEMP:  84; 6HR MAX TEMP:  91;

HUNTINGBURG +  PTCLDY    81  74  79 MISG      29.87R
6HR MIN TEMP:  81; 6HR MAX TEMP:  90;

WASHINGTON +   CLEAR     84  67  57 MISG      29.85R
6HR MIN TEMP:  83; 6HR MAX TEMP:  88;


$$

INZ062-063-066-070>080-084-089>092-180100-
SOUTH CENTRAL AND SOUTHEAST INDIANA

CITY           SKY/WX    TMP DP  RH WIND       PRES   REMARKS
BLOOMINGTON    PTCLDY    82  67  60 SW8       29.85S
6HR MIN TEMP:  82; 6HR MAX TEMP:  87;

MADISON *+     CLOUDY    77  72  83 S9        29.90R
NORTH VERNON + CLOUDY    81  70  69 W6        29.86S
SEYMOUR +      CLOUDY    84  70  61 W5        29.85R

$$





USA.gov is the U.S. government's official web portal to all federal, state and local government web resources and services.